STARLINK-1450 (45667 NORAD) Tracking and Keplerian Element Data

This shows tracking and keplerian element data for the satellite.

Feedback or suggestion? Click here.




ElementValue
Catalog45667
NameSTARLINK-1450
Epoch Orbit572
Epoch Day186.50001157
Epoch Year2020
RAAN20.4534
Inclination53.0011
Eccentricity0.0001222
Argument of Perigee81.736
Mean Anonmoly5.1899
Mean Motion15.45462615
Decay Rate-0.01076272
L11 45667U 20035L 20186.50001157 -.01076272 00000-0 -24424-1 0 9998
L22 45667 53.0011 20.4534 0001222 81.7360 5.1899 15.45462615 5725

Live tracking and technical data element details for STARLINK-1450 (NORAD 45667). STARLINK-1450 can be tracked NOW for your location showing map with azimuth and elevation plus other details from your city location.

Track the satellite on the map from your city or location and see movement details for azimuth, elevation, latitude, longitude, range, height, and movement on the map or in text.







IsCatalogInMostPopularTable: catalog: 45667, numindb: 4
Update: records affected: 1



GetName: 45667 STARLINK-1450

Hit Count: updated at: Sun, 05 Jul 2020 17:30:08 GMT